EZY29ZI LFPG-EGKK

Flight info

Callsign EZY29ZI
Flight time 0h 46m
Altitude 24000
Route OPALE DCT KESAX DCT KUNAV
Aircraft A20N/M-SDE2E3FGHIRWXY/LB1

Departure

Time 2026-05-07 20:34
Airport Charles de Gaulle International Airport (LFPG)

Arrival

Time 2026-05-07 21:20
Airport London Gatwick Airport (EGKK)
Time Latitude Longitude Altitude Speed Heading
2026-05-07 20:10 49.00567 2.56736 354 ft 0 kts 175°
2026-05-07 20:23 49.00572 2.56735 354 ft 2 kts 175°
2026-05-07 20:23 49.00587 2.56733 358 ft 2 kts 175°
2026-05-07 20:23 49.00601 2.56731 354 ft 2 kts 186°
2026-05-07 20:23 49.00616 2.56737 355 ft 2 kts 230°
2026-05-07 20:24 49.00621 2.56750 362 ft 0 kts 264°
2026-05-07 20:28 49.00620 2.56738 355 ft 3 kts 264°
2026-05-07 20:28 49.00618 2.56679 355 ft 8 kts 267°
2026-05-07 20:28 49.00615 2.56575 354 ft 12 kts 267°
2026-05-07 20:28 49.00607 2.56428 354 ft 13 kts 265°
2026-05-07 20:29 49.00601 2.56295 354 ft 14 kts 265°
2026-05-07 20:29 49.00590 2.56130 360 ft 17 kts 262°
2026-05-07 20:29 49.00565 2.55948 356 ft 18 kts 273°
2026-05-07 20:29 49.00559 2.55753 357 ft 18 kts 263°
2026-05-07 20:30 49.00551 2.55552 361 ft 20 kts 266°
2026-05-07 20:30 49.00521 2.55373 356 ft 17 kts 226°
2026-05-07 20:30 49.00411 2.55346 355 ft 18 kts 165°
2026-05-07 20:30 49.00298 2.55394 359 ft 15 kts 164°
2026-05-07 20:31 49.00186 2.55443 354 ft 18 kts 164°
2026-05-07 20:31 49.00063 2.55497 360 ft 18 kts 163°
2026-05-07 20:31 48.99942 2.55551 360 ft 18 kts 159°
2026-05-07 20:31 48.99856 2.55655 356 ft 15 kts 122°
2026-05-07 20:32 48.99820 2.55780 358 ft 11 kts 132°
2026-05-07 20:32 48.99760 2.55810 355 ft 8 kts 175°
2026-05-07 20:32 48.99733 2.55811 354 ft 2 kts 180°
2026-05-07 20:32 48.99702 2.55811 354 ft 7 kts 178°
2026-05-07 20:33 48.99639 2.55822 361 ft 11 kts 165°
2026-05-07 20:33 48.99602 2.55895 354 ft 8 kts 84°
2026-05-07 20:33 48.99605 2.55940 353 ft 15 kts 85°
2026-05-07 20:33 48.99636 2.56495 355 ft 88 kts 85°
2026-05-07 20:34 48.99701 2.57708 362 ft 141 kts 85°
2026-05-07 20:34 48.99768 2.59204 725 ft 149 kts 86°
2026-05-07 20:34 48.99840 2.60770 1366 ft 150 kts 85°
2026-05-07 20:34 48.99935 2.62362 2019 ft 152 kts 85°
2026-05-07 20:35 49.00034 2.64056 2444 ft 170 kts 85°
2026-05-07 20:35 49.00142 2.65960 2839 ft 191 kts 85°
2026-05-07 20:35 49.00257 2.68081 3261 ft 216 kts 85°
2026-05-07 20:35 49.00379 2.70402 3868 ft 238 kts 85°
2026-05-07 20:36 49.00517 2.73043 4569 ft 260 kts 85°
2026-05-07 20:36 49.00661 2.75835 5588 ft 268 kts 85°
2026-05-07 20:36 49.00808 2.78701 6610 ft 276 kts 85°
2026-05-07 20:36 49.01001 2.81639 7605 ft 281 kts 77°
2026-05-07 20:37 49.01817 2.84364 8577 ft 289 kts 51°
2026-05-07 20:37 49.03357 2.86341 9530 ft 294 kts 25°
2026-05-07 20:37 49.05318 2.87235 10454 ft 300 kts
2026-05-07 20:37 49.07467 2.87627 10944 ft 323 kts
2026-05-07 20:38 49.09753 2.87896 11387 ft 343 kts
2026-05-07 20:38 49.12164 2.87992 12234 ft 348 kts 354°
2026-05-07 20:38 49.14542 2.87282 13171 ft 350 kts 339°
2026-05-07 20:38 49.16757 2.85730 14064 ft 352 kts 327°
2026-05-07 20:39 49.18802 2.83645 14924 ft 354 kts 321°
2026-05-07 20:39 49.20739 2.81305 15776 ft 357 kts 318°
2026-05-07 20:39 49.22645 2.78847 16617 ft 360 kts 317°
2026-05-07 20:39 49.24557 2.76342 17445 ft 364 kts 317°
2026-05-07 20:40 49.26491 2.73811 18275 ft 367 kts 317°
2026-05-07 20:40 49.28456 2.71251 18989 ft 372 kts 317°
2026-05-07 20:40 49.30437 2.68681 19687 ft 375 kts 317°
2026-05-07 20:40 49.32443 2.66083 20384 ft 379 kts 317°
2026-05-07 20:41 49.34474 2.63453 21039 ft 384 kts 317°
2026-05-07 20:41 49.36504 2.60821 21738 ft 387 kts 317°
2026-05-07 20:41 49.38574 2.58133 22414 ft 391 kts 317°
2026-05-07 20:41 49.40657 2.55426 23228 ft 388 kts 317°
2026-05-07 20:42 49.42657 2.52833 23786 ft 362 kts 317°
2026-05-07 20:42 49.44523 2.50414 23976 ft 342 kts 317°
2026-05-07 20:42 49.46357 2.48027 24061 ft 348 kts 317°
2026-05-07 20:42 49.48209 2.45605 24066 ft 350 kts 317°
2026-05-07 20:43 49.50057 2.43187 24075 ft 348 kts 317°
2026-05-07 20:43 49.51880 2.40800 24068 ft 349 kts 317°
2026-05-07 20:43 49.53731 2.38376 24067 ft 349 kts 317°
2026-05-07 20:43 49.55584 2.35946 24068 ft 349 kts 317°
2026-05-07 20:44 49.57431 2.33522 24069 ft 349 kts 317°
2026-05-07 20:44 49.59281 2.31091 24069 ft 349 kts 317°
2026-05-07 20:44 49.61129 2.28661 24070 ft 349 kts 317°
2026-05-07 20:44 49.62975 2.26231 24069 ft 349 kts 317°
2026-05-07 20:45 49.64827 2.23791 24072 ft 350 kts 317°
2026-05-07 20:45 49.66682 2.21345 24064 ft 350 kts 317°
2026-05-07 20:45 49.68507 2.18934 24070 ft 350 kts 316°
2026-05-07 20:45 49.70357 2.16488 24064 ft 350 kts 316°
2026-05-07 20:46 49.72233 2.14003 24069 ft 364 kts 316°
2026-05-07 20:46 49.74204 2.11382 24061 ft 385 kts 317°
2026-05-07 20:46 49.76290 2.08609 24062 ft 403 kts 317°
2026-05-07 20:46 49.78421 2.05779 24064 ft 397 kts 317°
2026-05-07 20:47 49.80479 2.03052 24065 ft 379 kts 317°
2026-05-07 20:47 49.82408 2.00495 24056 ft 361 kts 317°
2026-05-07 20:47 49.84276 1.98014 24056 ft 345 kts 316°
2026-05-07 20:47 49.86099 1.95583 24071 ft 349 kts 316°
2026-05-07 20:48 49.87948 1.93109 24060 ft 351 kts 316°
2026-05-07 20:48 49.89167 1.91477 24067 ft 350 kts 316°
2026-05-07 20:48 49.91009 1.89012 24060 ft 350 kts 316°
2026-05-07 20:48 49.92855 1.86540 24064 ft 350 kts 316°
2026-05-07 20:49 49.94695 1.84072 24058 ft 350 kts 316°
2026-05-07 20:49 49.96539 1.81599 24069 ft 350 kts 316°
2026-05-07 20:49 49.98987 1.78311 24059 ft 351 kts 316°
2026-05-07 20:49 50.00231 1.76639 24063 ft 350 kts 316°
2026-05-07 20:50 50.02074 1.74157 24066 ft 350 kts 316°
2026-05-07 20:50 50.03918 1.71673 24067 ft 350 kts 316°
2026-05-07 20:50 50.05764 1.69182 24058 ft 350 kts 316°
2026-05-07 20:50 50.07583 1.66726 24061 ft 350 kts 316°
2026-05-07 20:51 50.09426 1.64235 24071 ft 350 kts 316°
2026-05-07 20:51 50.11267 1.61744 24071 ft 350 kts 316°
2026-05-07 20:51 50.13105 1.59252 24063 ft 350 kts 316°
2026-05-07 20:51 50.14944 1.56757 24067 ft 350 kts 316°
2026-05-07 20:52 50.16789 1.54248 24063 ft 350 kts 316°
2026-05-07 20:52 50.18626 1.51748 24080 ft 350 kts 316°
2026-05-07 20:52 50.20466 1.49243 24069 ft 351 kts 316°
2026-05-07 20:52 50.22304 1.46737 24071 ft 351 kts 316°
2026-05-07 20:53 50.24140 1.44230 24065 ft 351 kts 316°
2026-05-07 20:53 50.25975 1.41722 24067 ft 351 kts 316°
2026-05-07 20:53 50.27815 1.39205 24069 ft 351 kts 316°
2026-05-07 20:53 50.29629 1.36721 24066 ft 351 kts 316°
2026-05-07 20:54 50.31470 1.34197 24071 ft 351 kts 316°
2026-05-07 20:54 50.33315 1.31666 24074 ft 356 kts 316°
2026-05-07 20:54 50.35230 1.29027 24075 ft 376 kts 316°
2026-05-07 20:54 50.37212 1.26299 24069 ft 379 kts 316°
2026-05-07 20:55 50.39193 1.23574 23964 ft 379 kts 316°
2026-05-07 20:55 50.41166 1.20858 23726 ft 377 kts 316°
2026-05-07 20:55 50.43132 1.18147 23415 ft 376 kts 316°
2026-05-07 20:55 50.45096 1.15434 22872 ft 375 kts 316°
2026-05-07 20:56 50.47043 1.12742 22331 ft 371 kts 316°
2026-05-07 20:56 50.48973 1.10070 21808 ft 368 kts 316°
2026-05-07 20:56 50.50881 1.07423 21263 ft 364 kts 316°
2026-05-07 20:56 50.52657 1.04626 20732 ft 360 kts 310°
2026-05-07 20:57 50.54353 1.01746 20200 ft 357 kts 310°
2026-05-07 20:57 50.56026 0.98930 19677 ft 355 kts 311°
2026-05-07 20:57 50.57709 0.96098 19153 ft 353 kts 311°
2026-05-07 20:57 50.59383 0.93279 18630 ft 352 kts 311°
2026-05-07 20:58 50.61053 0.90460 18070 ft 351 kts 310°
2026-05-07 20:58 50.62711 0.87658 17548 ft 348 kts 310°
2026-05-07 20:58 50.64349 0.84884 17024 ft 345 kts 310°
2026-05-07 20:58 50.65978 0.82121 16497 ft 343 kts 310°
2026-05-07 20:59 50.67579 0.79371 16182 ft 335 kts 308°
2026-05-07 20:59 50.69043 0.76496 16085 ft 338 kts 307°
2026-05-07 20:59 50.70520 0.73601 16081 ft 339 kts 307°
2026-05-07 20:59 50.71975 0.70761 16079 ft 325 kts 307°
2026-05-07 21:00 50.73361 0.68059 16041 ft 310 kts 307°
2026-05-07 21:00 50.74688 0.65465 15928 ft 297 kts 306°
2026-05-07 21:00 50.75928 0.63036 15767 ft 281 kts 306°
2026-05-07 21:00 50.77142 0.60650 15498 ft 275 kts 306°
2026-05-07 21:01 50.78339 0.58291 15138 ft 274 kts 306°
2026-05-07 21:01 50.79532 0.55937 14768 ft 273 kts 306°
2026-05-07 21:01 50.80720 0.53592 14417 ft 272 kts 306°
2026-05-07 21:01 50.81902 0.51259 14070 ft 271 kts 306°
2026-05-07 21:02 50.83079 0.48936 13675 ft 269 kts 306°
2026-05-07 21:02 50.84242 0.46638 13146 ft 266 kts 306°
2026-05-07 21:02 50.85379 0.44393 12645 ft 263 kts 306°
2026-05-07 21:02 50.86517 0.42141 12219 ft 260 kts 306°
2026-05-07 21:03 50.87641 0.39914 11976 ft 257 kts 306°
2026-05-07 21:03 50.88753 0.37709 11529 ft 256 kts 307°
2026-05-07 21:03 50.89859 0.35513 11052 ft 253 kts 307°
2026-05-07 21:03 50.90953 0.33341 10590 ft 251 kts 307°
2026-05-07 21:04 50.92032 0.31196 10130 ft 248 kts 307°
2026-05-07 21:04 50.93102 0.29066 9651 ft 245 kts 307°
2026-05-07 21:04 50.94161 0.26958 9171 ft 242 kts 307°
2026-05-07 21:04 50.95265 0.24924 9015 ft 246 kts 311°
2026-05-07 21:05 50.96216 0.23269 8980 ft 247 kts 311°
2026-05-07 21:05 50.97365 0.21271 8984 ft 245 kts 311°
2026-05-07 21:05 50.98499 0.19299 8979 ft 245 kts 311°
2026-05-07 21:05 50.99471 0.17071 8986 ft 243 kts 289°
2026-05-07 21:06 50.99710 0.14464 8982 ft 244 kts 271°
2026-05-07 21:06 50.99753 0.11783 8922 ft 241 kts 271°
2026-05-07 21:06 50.99794 0.09122 8634 ft 241 kts 271°
2026-05-07 21:06 50.99833 0.06455 8289 ft 241 kts 271°
2026-05-07 21:07 50.99873 0.03794 7963 ft 240 kts 271°
2026-05-07 21:07 50.99912 0.01147 7643 ft 240 kts 271°
2026-05-07 21:07 50.99952 -0.01491 7368 ft 239 kts 271°
2026-05-07 21:07 50.99984 -0.04117 7128 ft 236 kts 271°
2026-05-07 21:08 51.00013 -0.06754 7073 ft 240 kts 271°
2026-05-07 21:08 51.00043 -0.09407 7074 ft 239 kts 271°
2026-05-07 21:08 51.00071 -0.12021 7075 ft 240 kts 271°
2026-05-07 21:08 51.00100 -0.14664 7074 ft 240 kts 271°
2026-05-07 21:09 51.00128 -0.17307 7075 ft 239 kts 271°
2026-05-07 21:09 51.00154 -0.19956 7075 ft 239 kts 271°
2026-05-07 21:09 51.00181 -0.22597 7075 ft 240 kts 271°
2026-05-07 21:09 51.00207 -0.25244 7075 ft 239 kts 271°
2026-05-07 21:10 51.00232 -0.27886 7073 ft 239 kts 271°
2026-05-07 21:10 51.00257 -0.30533 7075 ft 239 kts 271°
2026-05-07 21:10 51.00282 -0.33178 7072 ft 239 kts 271°
2026-05-07 21:10 51.00307 -0.35818 7072 ft 240 kts 271°
2026-05-07 21:11 51.00331 -0.38462 7065 ft 239 kts 271°
2026-05-07 21:11 51.00355 -0.41087 6883 ft 237 kts 271°
2026-05-07 21:11 51.00396 -0.46339 5964 ft 240 kts 271°
2026-05-07 21:12 51.00674 -0.48923 5446 ft 239 kts 295°
2026-05-07 21:12 51.01727 -0.50939 5003 ft 239 kts 327°
2026-05-07 21:12 51.03229 -0.52032 4483 ft 238 kts 341°
2026-05-07 21:12 51.04750 -0.52931 4165 ft 232 kts 341°
2026-05-07 21:13 51.06218 -0.53767 4028 ft 215 kts 349°
2026-05-07 21:13 51.07622 -0.54001 3931 ft 191 kts 350°
2026-05-07 21:13 51.08865 -0.54668 3471 ft 186 kts 341°
2026-05-07 21:13 51.10087 -0.55413 3079 ft 190 kts 341°
2026-05-07 21:14 51.11335 -0.56172 3001 ft 191 kts 343°
2026-05-07 21:14 51.12629 -0.56244 2998 ft 188 kts 20°
2026-05-07 21:14 51.13627 -0.55025 3000 ft 182 kts 60°
2026-05-07 21:14 51.13869 -0.53114 2997 ft 178 kts 101°
2026-05-07 21:15 51.13354 -0.51330 2998 ft 178 kts 121°
2026-05-07 21:15 51.12718 -0.49641 2999 ft 178 kts 121°
2026-05-07 21:15 51.12080 -0.47950 2997 ft 178 kts 121°
2026-05-07 21:15 51.11446 -0.46256 2996 ft 178 kts 117°
2026-05-07 21:16 51.11300 -0.44435 2996 ft 156 kts 84°
2026-05-07 21:16 51.11521 -0.42883 2983 ft 133 kts 76°
2026-05-07 21:16 51.11739 -0.41464 2866 ft 132 kts 80°
2026-05-07 21:16 51.11932 -0.40065 2696 ft 130 kts 80°
2026-05-07 21:17 51.12124 -0.38664 2531 ft 129 kts 80°
2026-05-07 21:17 51.12315 -0.37278 2357 ft 128 kts 80°
2026-05-07 21:17 51.12506 -0.35885 2179 ft 129 kts 80°
2026-05-07 21:17 51.12697 -0.34489 2000 ft 129 kts 80°
2026-05-07 21:18 51.12888 -0.33094 1825 ft 129 kts 80°
2026-05-07 21:18 51.13080 -0.31693 1647 ft 129 kts 80°
2026-05-07 21:18 51.13272 -0.30294 1466 ft 129 kts 80°
2026-05-07 21:18 51.13464 -0.28896 1292 ft 129 kts 80°
2026-05-07 21:19 51.13653 -0.27516 1107 ft 129 kts 79°
2026-05-07 21:19 51.13830 -0.26226 939 ft 130 kts 79°
2026-05-07 21:19 51.14017 -0.24822 728 ft 129 kts 79°
2026-05-07 21:19 51.14216 -0.23422 541 ft 130 kts 78°
2026-05-07 21:20 51.14405 -0.22022 403 ft 129 kts 79°
2026-05-07 21:20 51.14595 -0.20623 251 ft 130 kts 78°
2026-05-07 21:20 51.14765 -0.19326 205 ft 98 kts 77°
2026-05-07 21:20 51.14871 -0.18580 211 ft 40 kts 76°
2026-05-07 21:21 51.14921 -0.18250 202 ft 30 kts 77°
2026-05-07 21:21 51.14985 -0.17965 210 ft 25 kts 58°
2026-05-07 21:21 51.15066 -0.17782 205 ft 14 kts 45°
2026-05-07 21:21 51.15098 -0.17755 209 ft 0 kts
2026-05-07 21:22 51.15102 -0.17755 206 ft 2 kts
2026-05-07 21:22 51.15123 -0.17757 207 ft 4 kts 354°
2026-05-07 21:23 51.15133 -0.17759 207 ft 2 kts 354°
2026-05-07 21:23 51.15139 -0.17760 207 ft 2 kts 354°
2026-05-07 21:23 51.15149 -0.17761 207 ft 3 kts 354°
2026-05-07 21:23 51.15184 -0.17768 213 ft 7 kts 351°
2026-05-07 21:24 51.15236 -0.17772 211 ft 9 kts 11°
2026-05-07 21:24 51.15269 -0.17696 206 ft 8 kts 78°
2026-05-07 21:24 51.15284 -0.17596 205 ft 10 kts 77°
2026-05-07 21:24 51.15296 -0.17506 208 ft 8 kts 79°
2026-05-07 21:25 51.15304 -0.17415 215 ft 7 kts 83°
2026-05-07 21:25 51.15341 -0.17369 207 ft 9 kts
2026-05-07 21:25 51.15389 -0.17380 214 ft 3 kts 348°
2026-05-07 21:25 51.15423 -0.17395 208 ft 7 kts 346°
2026-05-07 21:26 51.15467 -0.17411 211 ft 8 kts 347°
2026-05-07 21:26 51.15520 -0.17431 213 ft 7 kts 348°
2026-05-07 21:26 51.15573 -0.17448 205 ft 10 kts 348°
2026-05-07 21:26 51.15638 -0.17469 205 ft 9 kts 348°
2026-05-07 21:27 51.15689 -0.17487 186 ft 6 kts 347°
2026-05-07 21:27 51.15739 -0.17503 209 ft 8 kts 351°
2026-05-07 21:27 51.15797 -0.17502 213 ft 8 kts
2026-05-07 21:27 51.15848 -0.17511 206 ft 4 kts 348°
2026-05-07 21:28 51.15861 -0.17515 206 ft 0 kts 348°